Regional Weather Roundup
Issued by NWS

Home | Current Version | Previous Version | Graphics & Text | Print | Product List | Glossary On
Versions: 1 2 3 4 5 6 7 8 9 10 11 12 13 14 15 16 17 18 19 20 21 22 23 24 25 26 27 28 29 30 31 32 33 34 35 36 37 38 39 40 41 42 43 44 45 46 47 48 49 50
000
ASUS43 KIND 211209
RWRIN

WEATHER ROUNDUP FOR INDIANA
NATIONAL WEATHER SERVICE INDIANAPOLIS IN
700 AM EST WED FEB 21 2018

NOTE: "FAIR" INDICATES FEW OR NO CLOUDS BELOW 12,000 FEET WITH NO
SIGNIFICANT WEATHER AND/OR OBSTRUCTIONS TO VISIBILITY.

* - STATION DOES NOT REPORT WEATHER SUCH AS PRECIPITATION OR FOG.

+ - STATION NOT QUALITY CONTROLLED BY THE NATIONAL WEATHER SERVICE.
    USE DATA WITH CAUTION...ESPECIALLY DEWPOINT AND RELATIVE
    HUMIDITY OBSERVATIONS.

INZ001>003-010>013-019-020-211300-
NORTHWEST INDIANA

CITY           SKY/WX    TMP DP  RH WIND       PRES   REMARKS
GARY /AIRPORT/ MOCLDY    32  30  93 N12G25    30.38R WCI  23
LA PORTE +     CLOUDY    31  28  91 N12G17    30.35R WCI  21
6HR MIN TEMP:  31; 6HR MAX TEMP:  35; 6HR PCP:  0.09;

MICHIGAN CITY+ CLOUDY    32  30  93 N10       30.37R WCI  24
MONTICELLO +   LGT RAIN  33  32  96 N12       30.33R WCI  24
6HR MIN TEMP:  33; 6HR MAX TEMP:  42; 6HR PCP:  0.37;

RENSSELAER +   CLOUDY    32  28  86 N13G20    30.36R WCI  22
VALPARAISO     CLOUDY    32  28  85 N13G20    30.36R WCI  22
6HR MIN TEMP:  32; 6HR MAX TEMP:  37; 6HR PCP:  0.36;


$$

LMZ046-743>745-211300-
SOUTHERN LAKE MICHIGAN

STATION/POSITION TIME  TEMP    WIND        PRES    WAVE
                       AIR SEA DIR/SP/G            HT
                 (UTC) (F)     (DEG/KT/KT) (MB)    (FT)
BURNS HARBOR     1140   31     340/ 15/ 20 1028.8R
MICHIGAN CITY    1140   31     330/ 13/ 14   N/A

$$

INZ004-005-014>016-021>024-211300-
NORTH CENTRAL INDIANA

CITY           SKY/WX    TMP DP  RH WIND       PRES   REMARKS
ELKHART        LGT RAIN  32  28  86 N14       30.32  WCI  22
GOSHEN         LGT RAIN  33  30  88 NW14      30.30R WCI  23
6HR MIN TEMP:  33; 6HR MAX TEMP:  42; 6HR PCP:  0.46;

LOGANSPORT +   LGT RAIN  34  32  93 N16G24    30.34R WCI  23
PERU/GRISSOM   RAIN      36  36 100 N10       30.31R WCI  28
6HR MIN TEMP:  36; 6HR MAX TEMP:  51; 6HR PCP:  0.60;

ROCHESTER +    DRIZZLE   34  34 100 N12G22    30.32R WCI  25
SOUTH BEND     CLOUDY    30  28  92 N15G23    30.34R WCI  19
6HR MIN TEMP:  30; 6HR MAX TEMP:  35; 6HR PCP:  0.53;

WARSAW +       LGT RAIN  32  32 100 N13G18    30.31R WCI  22

$$

INZ006>009-017-018-025>027-211300-
NORTHEAST INDIANA

CITY           SKY/WX    TMP DP  RH WIND       PRES   REMARKS
AUBURN +       LGT RAIN  36  36 100 NW8G16    30.26R WCI  29
FORT WAYNE     LGT RAIN  39  38  96 NW12      30.26R WCI  32
6HR MIN TEMP:  39; 6HR MAX TEMP:  57; 6HR PCP:  0.56;

HUNTINGTON +   LGT RAIN  37  35  96 NW10      30.29R WCI  29
6HR MIN TEMP:  37; 6HR MAX TEMP:  55; 6HR PCP:  0.63;

KENDALLVILLE + LGT RAIN  33  32  96 N12G20    30.28R WCI  25

$$

INZ028-029-035-036-043>045-051>053-211300-
WEST CENTRAL INDIANA

CITY           SKY/WX    TMP DP  RH WIND       PRES   REMARKS
CRAWFORDSVL +  FLURRIES  34  34 100 NW9       30.26R WCI  26
6HR MIN TEMP:  34; 6HR MAX TEMP:  42; 6HR PCP:  0.40;

GREENCASTLE +  LGT RAIN  36  34  93 N10       30.31R WCI  28
LAFAYETTE      LGT RAIN  34  33  96 N9        30.34R WCI  27
6HR MIN TEMP:  34; 6HR MAX TEMP:  41; 6HR PCP:  0.65;

TERRE HAUTE    LGT RAIN  36  34  92 N13       30.33R WCI  27
6HR MIN TEMP:  36; 6HR MAX TEMP:  47; 6HR PCP:  0.64;


$$

INZ030>032-037>040-046>048-054>057-064-065-211300-
CENTRAL INDIANA

CITY           SKY/WX    TMP DP  RH WIND       PRES   REMARKS
COLUMBUS       LGT RAIN  46  45  93 NW12      30.27  FOG
FISHERS *+     CLOUDY    39  39 100 NW6G58    30.31R WCI  35
FRANKFORT +    LGT RAIN  38  36  91 N14       30.35R WCI  30
6HR MIN TEMP:  38; 6HR MAX TEMP:  47; 6HR PCP:  0.51;

GREENWOOD *+   CLOUDY    42 -47   1 NW9       30.29R
6HR MIN TEMP:  42; 6HR MAX TEMP:  66;

INDIANAPOLIS   LGT RAIN  41  39  93 NW14      30.30R
6HR MIN TEMP:  41; 6HR MAX TEMP:  69; 6HR PCP:  0.79;

-EAGLE CREEK   LGT RAIN  41  37  86 NW14      30.29R
6HR MIN TEMP:  41; 6HR MAX TEMP:  69; 6HR PCP:  0.76;

KOKOMO +       RAIN      36  36 100 NW15      30.32R WCI  27
6HR MIN TEMP:  36; 6HR MAX TEMP:  53; 6HR PCP:  0.60;

MARION +       LGT RAIN  37  36  98 N9        30.30R WCI  30
MT COMFORT *+  CLOUDY    41  41 100 NW12      30.29R
SHELBYVILLE    LGT RAIN  45  42  89 NW10      30.26R
6HR MIN TEMP:  45; 6HR MAX TEMP:  68; 6HR PCP:  0.55;

ZIONSVILLE +   RAIN      37  36  94 N14       30.31R WCI  29
6HR MIN TEMP:  37; 6HR MAX TEMP:  57; 6HR PCP:  0.68;


$$

INZ033-034-041-042-049-050-058-059-211300-
EAST CENTRAL INDIANA

CITY           SKY/WX    TMP DP  RH WIND       PRES   REMARKS
MUNCIE         LGT RAIN  43  40  89 N14       30.25R
6HR MIN TEMP:  43; 6HR MAX TEMP:  67; 6HR PCP:  0.49;

RICHMOND +     LGT RAIN  54  54 100 N3        30.20R

$$

INZ060-061-067>069-081>083-085>088-211300-
SOUTHWEST INDIANA

CITY           SKY/WX    TMP DP  RH WIND       PRES   REMARKS
EVANSVILLE     LGT RAIN  42  42 100 NW7       30.32R
6HR MIN TEMP:  42; 6HR MAX TEMP:  71; 6HR PCP:  0.48;

HUNTINGBURG +  LGT RAIN  44  43  96 NW14      30.29R
6HR MIN TEMP:  44; 6HR MAX TEMP:  70; 6HR PCP:  0.38;

WASHINGTON +   RAIN      39  37  93 NW17G23   30.31R WCI  30
6HR MIN TEMP:  39; 6HR MAX TEMP:  70; 6HR PCP:  0.46;


$$

INZ062-063-066-070>080-084-089>092-211300-
SOUTH CENTRAL AND SOUTHEAST INDIANA

CITY           SKY/WX    TMP DP  RH WIND       PRES   REMARKS
BATESVILLE +   CLOUDY    52  52 100 MISG      30.24R FOG
BEDFORD +      RAIN      48  46  93 NW6       30.25R
BLOOMINGTON    LGT RAIN  44  42  93 N10       30.28R
6HR MIN TEMP:  44; 6HR MAX TEMP:  72; 6HR PCP:  0.51;

FRENCH LICK *+ CLOUDY    45 N/A N/A W6        30.27R
MADISON *+     CLOUDY    55  54  94 NW3       30.26R
NORTH VERNON + LGT RAIN  50  50 100 NW9       30.24R
SEYMOUR +      LGT RAIN  55  54  94 N9        30.26

$$





USA.gov is the U.S. government's official web portal to all federal, state and local government web resources and services.